Location: Bletchingley
(51.2333°N, 0.1000°W)
Time: 14:50:02
(UTC+00:00)

Cosmos 1674 - Pass Details

Date: 18 September 2020
Orbit: 494 x 518 km, 82.5° (Epoch: 27 October)

Event Time Altitude Azimuth Distance (km) Brightness Sun altitude
Rises 19:01:41 0° 359° (N) 2,656 6.5 -9.3°
Reaches altitude 10° 19:04:12 10° 15° (NNE) 1,763 5.4 -9.7°
Maximum altitude 19:07:16 22° 68° (ENE) 1,172 4.0 -10.1°
Enters shadow 19:09:19 15° 109° (ESE) 1,458 4.3 -10.5°
